Orbital Elements at Epoch 2459200.5 (2020-Dec-17.0) TDB
Reference: JPL 36 (heliocentric ecliptic J2000)
Element | Value | Uncertainty (1-sigma) | Units |
e | .1767119754864654 | 3.7526e-08 | |
a | 3.082861401423389 | 1.4984e-08 | au |
q | 2.538082873026889 | 1.1619e-07 | au |
i | 5.828419755294705 | 3.8448e-06 | deg |
node | 123.82330036 | 4.2769e-05 | deg |
peri | 283.6058217165712 | 4.4434e-05 | deg |
M | 71.42915806128254 | 1.0955e-05 | deg |
tp | 2458808.214317597503 (2019-Nov-20.71431760) | 6.0254e-05 | TDB |
period | 1977.103601637541 5.41 | 1.4414e-05 3.946e-08 | d yr |
n | .1820845400826892 | 1.3275e-09 | deg/d |
Q | 3.627639929819889 | 1.7632e-08 | au |
|
| | Orbit Determination Parameters
Additional Information
|